Regional Weather Roundup
Issued by NWS

Home | Current Version | Previous Version | Text Only | Print | Product List | Glossary Off
Versions: 1 2 3 4 5 6 7 8 9 10 11 12 13 14 15 16 17 18 19 20 21 22 23 24 25 26 27 28 29 30 31 32 33 34 35 36 37 38 39 40 41 42 43 44 45 46 47 48 49 50

000
ASUS43 KLOT 110303
RWRIL

ILLINOIS REGIONAL WEATHER ROUNDUP
NATIONAL WEATHER SERVICE CHICAGO/ROMEOVILLE IL
900 PM CST WED FEB 10 2016

NOTE: "FAIR" INDICATES FEW OR NO CLOUDS BELOW 12,000 FEET WITH NO
SIGNIFICANT WEATHER AND/OR OBSTRUCTIONS TO VISIBILITY.

* THESE STATIONS ARE NOT UNDER NWS QUALITY CONTROL. THEY ALSO MAY NOT
  REPORT WEATHER SUCH AS PRECIPITATION OR FOG.

ILZ001-002-007-009-015-016-024-110400-
NORTHWEST ILLINOIS

CITY           SKY/WX    TMP DP  RH WIND       PRES   REMARKS
MOLINE         CLEAR     15   2  56 NW3       30.18R
STERLING*      PTCLDY    12   1  62 N5        30.14R WCI   4
$$

ILZ003-004-008-010-011-017-018-110400-
NORTH CENTRAL ILLINOIS

CITY           SKY/WX    TMP DP  RH WIND       PRES   REMARKS
ROCKFORD       PTCLDY    12   1  61 NW3       30.18R
FREEPORT*      MOCLDY     9   1  69 NW3       30.17R
ROCHELLE*      CLEAR     10   3  72 NW6       30.16R WCI   1
DE KALB*       CLEAR     10   2  69 CALM      30.15R
$$

ILZ005-006-012>014-019>023-110400-
NORTHEAST ILLINOIS

CITY           SKY/WX    TMP DP  RH WIND       PRES   REMARKS
CHICAGO-OHARE  PTCLDY    12   0  58 N6        30.14R WCI   3
CHICAGO-MIDWAY PTCLDY    14   0  53 NW12      30.15R WCI   0
AURORA         CLEAR     11   3  70 N5        30.16R WCI   3
LANSING*       CLOUDY    15   2  57 N7        30.15R WCI   5
WAUKEGAN       CLEAR      8   0  69 W3        30.13R
DUPAGE AIRPORT CLEAR      8  -2  63 N6        30.14R WCI  -2
WHEELING       CLEAR     11   0  61 NW3       30.16R
MORRIS*        CLEAR     13   6  73 CALM      30.14R
NORTHERLY ISL    N/A     15   3  59 W2          N/A
$$

LMZ740>746-110400-
SOUTHERN LAKE MICHIGAN

STATION/POSITION SKY/WX   TEMP    WIND        PRES    VSBY  WAVE
                          AIR SEA DIR/SP/G                  HT/PER
                          (F)     (DEG/KT/KT) (MB)    (MI)  (FT/S)
HARRISON CRIB              16     320/ 11/ 13   N/A
BURNHAM HARBOR             15     310/  6/  9   N/A
CALUMET HARBOR             15                   N/A
BURNS HARBOR               18     320/  9/ 17 1020.0R
MICHIGAN CITY              17     300/ 15/ 17   N/A
$$

ILZ025>027-034>036-040-047-049-050-058-095>099-110400-
WEST-CENTRAL ILLINOIS

CITY           SKY/WX    TMP DP  RH WIND       PRES   REMARKS
QUINCY           N/A     20  15  81 E3        30.14R
MACOMB*        CLOUDY    19  14  81 CALM      30.19R
$$

ILZ028>032-037-038-041>044-048-051>054-059>061-110400-
CENTRAL ILLINOIS

CITY           SKY/WX    TMP DP  RH WIND       PRES   REMARKS
BLOOMINGTON    MOCLDY    16   7  67 W8        30.15R WCI   5
DECATUR        CLOUDY    19  12  74 W7        30.16S WCI  10
PEORIA         CLOUDY    16   6  65 CALM      30.17R
LACON*         CLEAR     15   4  63 NW3       30.17R
LINCOLN*       CLOUDY    19  12  76 CALM      30.17S
SPRINGFIELD    CLOUDY    20  15  81 NW3       30.17S
TAYLORVILLE    NOT AVBL
$$

ILZ033-039-045-046-055>057-062-063-110400-
EAST-CENTRAL ILLINOIS

CITY           SKY/WX    TMP DP  RH WIND       PRES   REMARKS
CHAMPAIGN      PTCLDY    15   7  70 W8        30.15R WCI   4
MATTOON        CLOUDY    18  12  77 W6        30.15R WCI  10
$$

ILZ079-100>102-110400-
SOUTHWEST ILLINOIS

CITY           SKY/WX    TMP DP  RH WIND       PRES   REMARKS
BELLEVILLE     CLOUDY    21  20  94 SE2       30.16S
CAHOKIA*       CLOUDY    22  18  85 SE3       30.17S
SPARTA*        CLOUDY    22  19  90 S3        30.18S
$$

ILZ064>066-069>071-074>076-080>082-084>086-088>090-092>094-110400-
SOUTH-CENTRAL ILLINOIS

CITY           SKY/WX    TMP DP  RH WIND       PRES   REMARKS
CARBONDALE     CLOUDY    22  19  89 S5        30.19R WCI  16
CAIRO*         CLOUDY    25  22  89 E6        30.20R WCI  18
MARION         CLOUDY    23  21  93 S3        30.19S
MT. VERNON     CLOUDY    19  14  79 CALM      30.18R
CENTRALIA*     CLOUDY    21  19  91 CALM      30.16S
SALEM*         FLURRIES  21  18  86 CALM      30.17S
$$

ILZ067-068-072-073-078-083-087-091-110400-
SOUTHEAST ILLINOIS

CITY           SKY/WX    TMP DP  RH WIND       PRES   REMARKS
LAWRENCEVILLE  CLEAR     20  13  74 W6        30.19R WCI  12
HARRISBURG*    CLOUDY    22  19  89 S3        30.20R
CARMI*         CLOUDY    21  18  89 SW3       30.19R
$$

ABBREVIATIONS USED IN REMARKS
   TC - TEMPERATURE IN CELSIUS
  WCI - WIND CHILL INDEX
   HX - HEAT INDEX
  VSB - VISIBILITY
$$




USA.gov is the U.S. government's official web portal to all federal, state and local government web resources and services.